Oakland, CA

9:45 PM PDT on June 24, 2018 (GMT -0700)
Metro Oakland International

Weather History for KOAK - November, 2017

Change the Weather History Date:

Monday, November 13, 2017

  Actual Average Record
Temperature  
Mean Temperature 60 °F 55 °F  
Max Temperature 66 °F 64 °F 74 °F (1961)
Min Temperature 53 °F 46 °F 34 °F (2000)
Degree Days  
Heating Degree Days 5 10  
Month to date heating degree days 112 113  
Since 1 July heating degree days 305 465  
Cooling Degree Days 0 0  
Month to date cooling degree days 0 0  
Year to date cooling degree days 312 137  
Growing Degree Days 8 (Base 50)    
Moisture  
Dew Point 54 °F    
Average Humidity 83    
Maximum Humidity 93    
Minimum Humidity 73    
Precipitation  
Precipitation 0.01 in 0.07 in 1.50 in (1960)
Month to date precipitation 0.56 0.98  
Year to date precipitation 20.81 15.68  
Sea Level Pressure  
Sea Level Pressure 30.19 in    
Wind  
Wind Speed 6 mph (South)    
Max Wind Speed 14 mph    
Max Gust Speed 17 mph    
Visibility 10 miles    
Events Rain    
T = Trace of Precipitation, MM = Missing Value Source: NWS Daily Summary

Daily Weather History Graph

Daily Weather History Graph

Search for Another Location

Airport or City:

Astronomy

Nov. 13, 2017 Rise Set
Actual Time 6:47 AM PST 4:58 PM PST
Civil Twilight 6:19 AM PST 5:26 PM PST
Nautical Twilight 5:47 AM PST 5:58 PM PST
Astronomical Twilight 5:16 AM PST 6:29 PM PST
Moon 1:59 AM PST (11/13) 2:48 PM PST (11/13)
Length of Visible Light 11h 07m
Length of Day
10h 11m
Waning Crescent, 20% of the Moon is Illuminated
Nov 13
Waning Crescent
Nov 18
New
Nov 26
First Quarter
Dec 3
Full
Dec 9
Last Quarter

Hourly Weather History & Observations

Time (PST) Temp. Dew Point Humidity Pressure Visibility Wind Dir Wind Speed Gust Speed Precip Events Conditions
12:53 AM 54.0 °F 48.9 °F 83% 30.16 in 10.0 mi ESE 8.1 mph - N/A   Scattered Clouds
1:53 AM 53.1 °F 48.9 °F 86% 30.15 in 10.0 mi SE 6.9 mph - N/A   Scattered Clouds
2:53 AM 54.0 °F 50.0 °F 86% 30.15 in 10.0 mi SE 8.1 mph - N/A   Overcast
3:53 AM 55.0 °F 50.0 °F 83% 30.16 in 10.0 mi SSE 11.5 mph - N/A   Overcast
4:53 AM 54.0 °F 50.0 °F 86% 30.17 in 10.0 mi ESE 6.9 mph - N/A   Overcast
5:33 AM 55.0 °F 50.0 °F 83% 30.18 in 10.0 mi SE 11.5 mph - N/A   Overcast
5:53 AM 55.0 °F 50.0 °F 83% 30.18 in 10.0 mi SE 8.1 mph - N/A   Overcast
6:13 AM 54.0 °F 50.0 °F 86% 30.19 in 10.0 mi SE 9.2 mph - N/A   Overcast
6:53 AM 54.0 °F 50.0 °F 86% 30.18 in 10.0 mi ESE 10.4 mph - N/A   Mostly Cloudy
7:36 AM 55.9 °F 51.1 °F 84% 30.20 in 10.0 mi SE 11.5 mph - N/A   Mostly Cloudy
7:47 AM 55.4 °F 51.8 °F 88% 30.20 in 10.0 mi SE 11.5 mph - N/A   Mostly Cloudy
7:53 AM 55.9 °F 51.1 °F 84% 30.20 in 10.0 mi SE 10.4 mph - N/A   Mostly Cloudy
8:53 AM 59.0 °F 53.1 °F 81% 30.23 in 10.0 mi SSE 11.5 mph - N/A   Scattered Clouds
9:53 AM 60.1 °F 53.1 °F 78% 30.22 in 10.0 mi SSE 11.5 mph - N/A   Scattered Clouds
10:18 AM 60.1 °F 54.0 °F 80% 30.23 in 10.0 mi South 9.2 mph - N/A   Mostly Cloudy
10:53 AM 62.1 °F 55.0 °F 78% 30.22 in 10.0 mi SSE 9.2 mph - N/A   Mostly Cloudy
11:53 AM 64.9 °F 55.9 °F 73% 30.20 in 10.0 mi SSE 6.9 mph - N/A   Scattered Clouds
12:53 PM 64.9 °F 55.0 °F 70% 30.17 in 10.0 mi South 3.5 mph - N/A   Mostly Cloudy
1:53 PM 64.0 °F 55.0 °F 73% 30.17 in 10.0 mi South 4.6 mph - N/A   Overcast
2:53 PM 61.0 °F 57.0 °F 87% 30.18 in 10.0 mi WNW 8.1 mph - 0.00 in   Overcast
3:53 PM 61.0 °F 57.0 °F 87% 30.18 in 10.0 mi Calm Calm - N/A   Overcast
4:42 PM 61.0 °F 57.0 °F 87% 30.18 in 7.0 mi Calm Calm - 0.00 in Rain Light Rain
4:53 PM 60.1 °F 57.0 °F 90% 30.18 in 7.0 mi Calm Calm - 0.00 in Rain Light Rain
5:24 PM 61.0 °F 57.9 °F 90% 30.18 in 10.0 mi WSW 6.9 mph - 0.00 in   Overcast
5:53 PM 59.0 °F 57.9 °F 96% 30.18 in 10.0 mi WNW 5.8 mph - 0.00 in   Overcast
6:53 PM 60.1 °F 57.9 °F 93% 30.19 in 10.0 mi Calm Calm - N/A   Overcast
7:53 PM 59.0 °F 57.9 °F 96% 30.20 in 10.0 mi Calm Calm - N/A   Overcast
8:53 PM 59.0 °F 57.0 °F 93% 30.22 in 10.0 mi NW 3.5 mph - 0.00 in Rain Light Rain
9:53 PM 60.1 °F 57.9 °F 93% 30.22 in 10.0 mi West 3.5 mph - 0.01 in   Overcast
10:05 PM 60.1 °F 57.9 °F 93% 30.22 in 10.0 mi Calm Calm - N/A   Overcast
10:25 PM 59.0 °F 57.9 °F 96% 30.22 in 10.0 mi WSW 3.5 mph - N/A   Overcast
10:53 PM 59.0 °F 57.9 °F 96% 30.23 in 10.0 mi West 4.6 mph - N/A   Overcast
11:19 PM 59.0 °F 57.9 °F 96% 30.23 in 10.0 mi WNW 4.6 mph - N/A   Overcast
11:53 PM 57.9 °F 57.9 °F 100% 30.23 in 10.0 mi WNW 6.9 mph - N/A   Overcast